Albany, NY

11:14 AM EST on November 18, 2019 (GMT -0500)
Albany International

Weather History for KALB - July, 2019

Change the Weather History Date:

Sunday, July 14, 2019

  Actual Average Record
Temperature  
Mean Temperature 78 °F 72 °F  
Max Temperature 86 °F 83 °F 99 °F (1995)
Min Temperature 69 °F 62 °F 49 °F (1940)
Degree Days  
Heating Degree Days 0 0  
Month to date heating degree days 0 0  
Since 1 June heating degree days 27 52  
Since 1 July heating degree days 0 0  
Cooling Degree Days 13 7  
Month to date cooling degree days 159 95  
Year to date cooling degree days 309 243  
Since 1 June cooling degree days 287 213  
Growing Degree Days 28 (Base 50)    
Moisture  
Dew Point 61 °F    
Average Humidity 58    
Maximum Humidity 73    
Minimum Humidity 43    
Precipitation  
Precipitation 0.00 in 0.13 in 3.11 in (1897)
Month to date precipitation 0.51 1.84  
Year to date precipitation 21.38 20.41  
Sea Level Pressure  
Sea Level Pressure 29.92 in    
Wind  
Wind Speed 10 mph (West)    
Max Wind Speed 24 mph    
Max Gust Speed 30 mph    
Visibility 10 miles    
Events      
T = Trace of Precipitation, MM = Missing Value Source: NWS Daily Summary

Daily Weather History Graph

Daily Weather History Graph

Search for Another Location

Airport or City:

Astronomy

Jul. 14, 2019 Rise Set
Actual Time 5:29 AM EDT 8:32 PM EDT
Civil Twilight 4:55 AM EDT 9:06 PM EDT
Nautical Twilight 4:11 AM EDT 9:49 PM EDT
Astronomical Twilight 3:20 AM EDT 10:40 PM EDT
Moon 6:52 PM EDT (7/14) 3:29 AM EDT (7/14)
Length of Visible Light 16h 10m
Length of Day
15h 02m
Waxing Gibbous, 95% of the Moon is Illuminated
Jul 14
Waxing Gibbous
Jul 16
Full
Jul 24
Last Quarter
Jul 31
New
Aug 7
First Quarter

Hourly Weather History & Observations

Time (EDT) Temp. Heat Index Dew Point Humidity Pressure Visibility Wind Dir Wind Speed Gust Speed Precip Events Conditions
12:51 AM 75.9 °F - 63.0 °F 64% 29.87 in 10.0 mi Calm Calm - N/A   Overcast
1:51 AM 73.9 °F - 63.0 °F 68% 29.86 in 10.0 mi SW 4.6 mph - N/A   Overcast
2:51 AM 73.0 °F - 63.0 °F 71% 29.86 in 10.0 mi Calm Calm - N/A   Mostly Cloudy
3:51 AM 71.1 °F - 61.0 °F 70% 29.86 in 10.0 mi SW 4.6 mph - N/A   Scattered Clouds
4:51 AM 70.0 °F - 61.0 °F 73% 29.87 in 10.0 mi Calm Calm - N/A   Partly Cloudy
5:51 AM 71.1 °F - 61.0 °F 70% 29.88 in 10.0 mi Variable 3.5 mph - N/A   Partly Cloudy
6:51 AM 72.0 °F - 63.0 °F 73% 29.89 in 10.0 mi SSW 4.6 mph - N/A   Partly Cloudy
7:51 AM 78.1 °F - 64.9 °F 64% 29.90 in 10.0 mi Calm Calm - N/A   Partly Cloudy
8:51 AM 79.0 °F - 64.9 °F 62% 29.91 in 10.0 mi West 8.1 mph - N/A   Partly Cloudy
9:51 AM 81.0 °F 82.2 °F 63.0 °F 54% 29.91 in 10.0 mi West 12.7 mph 21.9 mph N/A   Scattered Clouds
10:51 AM 82.9 °F 84.0 °F 63.0 °F 51% 29.92 in 10.0 mi WNW 17.3 mph 24.2 mph N/A   Mostly Cloudy
11:51 AM 82.9 °F 83.2 °F 60.1 °F 46% 29.93 in 10.0 mi West 11.5 mph - N/A   Scattered Clouds
12:51 PM 82.9 °F 83.2 °F 60.1 °F 46% 29.93 in 10.0 mi NW 11.5 mph 20.7 mph N/A   Partly Cloudy
1:51 PM 84.0 °F 84.0 °F 60.1 °F 44% 29.92 in 10.0 mi West 15.0 mph 24.2 mph N/A   Partly Cloudy
2:51 PM 84.9 °F 85.0 °F 61.0 °F 44% 29.91 in 10.0 mi WNW 17.3 mph - N/A   Scattered Clouds
3:51 PM 84.0 °F 84.0 °F 60.1 °F 44% 29.92 in 10.0 mi WNW 17.3 mph 25.3 mph N/A   Partly Cloudy
4:51 PM 84.0 °F 83.8 °F 59.0 °F 43% 29.93 in 10.0 mi WNW 18.4 mph 28.8 mph N/A   Mostly Cloudy
5:51 PM 82.0 °F 82.0 °F 57.9 °F 44% 29.93 in 10.0 mi West 23.0 mph 29.9 mph N/A   Scattered Clouds
6:51 PM 80.1 °F 80.4 °F 57.0 °F 45% 29.95 in 10.0 mi WNW 15.0 mph 26.5 mph N/A   Partly Cloudy
7:51 PM 77.0 °F - 57.9 °F 52% 29.96 in 10.0 mi West 12.7 mph - N/A   Scattered Clouds
8:51 PM 75.0 °F - 57.9 °F 55% 29.99 in 10.0 mi West 11.5 mph 21.9 mph N/A   Scattered Clouds
9:51 PM 72.0 °F - 57.9 °F 61% 30.01 in 10.0 mi West 10.4 mph - N/A   Scattered Clouds
10:51 PM 72.0 °F - 57.0 °F 59% 30.01 in 10.0 mi WNW 11.5 mph - N/A   Scattered Clouds
11:51 PM 69.1 °F - 57.0 °F 65% 30.02 in 10.0 mi WNW 8.1 mph - N/A   Scattered Clouds